Concordia, KS

11:13 AM CDT on October 14, 2019 (GMT -0500)
Blosser Municipal

Weather History for KCNK - August, 2019

Change the Weather History Date:

Wednesday, August 7, 2019

  Actual Average Record
Temperature  
Mean Temperature 77 °F 78 °F  
Max Temperature 85 °F 90 °F 110 °F (1946)
Min Temperature 69 °F 67 °F 50 °F (1989)
Degree Days  
Heating Degree Days 0 0  
Month to date heating degree days 0 0  
Since 1 June heating degree days 0 13  
Since 1 July heating degree days 0 0  
Cooling Degree Days 12 13  
Month to date cooling degree days 93 96  
Year to date cooling degree days 998 886  
Since 1 June cooling degree days 898 797  
Growing Degree Days 26 (Base 50)    
Moisture  
Dew Point 69 °F    
Average Humidity 78    
Maximum Humidity 94    
Minimum Humidity 61    
Precipitation  
Precipitation 0.05 in 0.11 in 2.69 in (1908)
Month to date precipitation 1.49 0.75  
Year to date precipitation 23.72 18.71  
Snow  
Snow 0.00 in 0.00 in 0.00 in ()
Month to date snowfall 0.0 0.0  
Year to date snowfall 32.3 13.7  
Since 1 July snowfall 0.0 0.0  
Snow Depth 0.00 in    
Sea Level Pressure  
Sea Level Pressure 29.87 in    
Wind  
Wind Speed 9 mph (East)    
Max Wind Speed 38 mph    
Max Gust Speed 51 mph    
Visibility 10 miles    
Events Rain , Thunderstorm    
T = Trace of Precipitation, MM = Missing Value Source: NWS Daily Summary

Daily Weather History Graph

Daily Weather History Graph

Search for Another Location

Airport or City:

Astronomy

Aug. 07, 2019 Rise Set
Actual Time 6:35 AM CDT 8:36 PM CDT
Civil Twilight 6:05 AM CDT 9:06 PM CDT
Nautical Twilight 5:29 AM CDT 9:42 PM CDT
Astronomical Twilight 4:50 AM CDT 10:20 PM CDT
Moon 2:07 PM CDT (8/7) 12:25 AM CDT (8/7)
Length of Visible Light 15h 00m
Length of Day
14h 01m
Waxing Crescent, 50% of the Moon is Illuminated
Aug 7
Waxing Crescent
Aug 7
First Quarter
Aug 15
Full
Aug 23
Last Quarter
Aug 30
New

Hourly Weather History & Observations

Time (CDT) Temp. Heat Index Dew Point Humidity Pressure Visibility Wind Dir Wind Speed Gust Speed Precip Events Conditions
12:55 AM 73.9 °F - 69.1 °F 85% 29.86 in 10.0 mi SSE 6.9 mph - N/A   Clear
1:55 AM 73.9 °F - 72.0 °F 93% 29.83 in 10.0 mi SE 6.9 mph - N/A   Clear
2:55 AM 75.0 °F - 73.0 °F 94% 29.80 in 10.0 mi ESE 5.8 mph - N/A   Clear
3:55 AM 73.9 °F - 72.0 °F 93% 29.78 in 10.0 mi SE 8.1 mph - N/A   Clear
4:55 AM 75.0 °F - 66.9 °F 76% 29.91 in 10.0 mi North 28.8 mph 50.6 mph N/A   Mostly Cloudy
5:11 AM 70.0 °F - 64.9 °F 84% 29.92 in 10.0 mi NE 16.1 mph 40.3 mph N/A   Mostly Cloudy
5:43 AM 69.1 °F - 64.9 °F 87% 29.94 in 10.0 mi ENE 15.0 mph 29.9 mph 0.00 in   Partly Cloudy
6:55 AM 69.1 °F - 64.9 °F 87% 29.86 in 10.0 mi East 13.8 mph 23.0 mph N/A   Clear
7:55 AM 70.0 °F - 64.9 °F 84% 29.89 in 10.0 mi SE 13.8 mph 23.0 mph N/A   Overcast
8:55 AM 72.0 °F - 64.9 °F 78% 29.88 in 10.0 mi ESE 15.0 mph - N/A   Clear
9:48 AM 73.9 °F - 66.0 °F 76% 29.97 in 10.0 mi NNE 4.6 mph - N/A Thunderstorm Mostly Cloudy
9:55 AM 73.9 °F - 66.0 °F 76% 29.94 in 10.0 mi North 6.9 mph - N/A Thunderstorm Mostly Cloudy
10:02 AM 72.0 °F - 66.0 °F 81% 29.98 in 4.0 mi NE 11.5 mph - 0.01 in Rain , Thunderstorm Heavy Thunderstorms and Rain
10:17 AM 70.0 °F - 66.9 °F 90% 29.95 in 10.0 mi SE 9.2 mph - 0.05 in Thunderstorm Mostly Cloudy
10:36 AM 73.0 °F - 69.1 °F 87% 29.95 in 10.0 mi East 8.1 mph - 0.05 in   Partly Cloudy
10:55 AM 73.9 °F - 69.1 °F 85% 29.90 in 10.0 mi SSE 12.7 mph - 0.05 in   Clear
11:55 AM 78.1 °F - 66.9 °F 68% 29.86 in 10.0 mi South 12.7 mph - N/A   Clear
12:55 PM 81.0 °F 84.1 °F 69.1 °F 67% 29.82 in 10.0 mi South 19.6 mph 27.6 mph N/A   Clear
1:55 PM 84.0 °F 88.4 °F 70.0 °F 63% 29.85 in 10.0 mi SSW 4.6 mph - N/A   Clear
2:55 PM 82.0 °F 86.3 °F 71.1 °F 69% 29.83 in 10.0 mi SE 6.9 mph - 0.00 in Rain Light Rain
3:55 PM 82.9 °F 88.8 °F 73.0 °F 72% 29.85 in 10.0 mi NE 6.9 mph - 0.00 in   Clear
4:55 PM 84.0 °F 90.2 °F 73.0 °F 69% 29.84 in 10.0 mi NE 5.8 mph - N/A   Clear
5:55 PM 84.0 °F 90.2 °F 73.0 °F 69% 29.85 in 10.0 mi NE 8.1 mph - N/A   Clear
6:55 PM 82.9 °F 88.0 °F 72.0 °F 69% 29.83 in 10.0 mi ENE 8.1 mph - N/A   Clear
7:55 PM 81.0 °F 85.8 °F 73.0 °F 77% 29.84 in 10.0 mi East 4.6 mph - N/A   Clear
8:55 PM 75.9 °F - 73.0 °F 91% 29.85 in 10.0 mi ESE 4.6 mph - N/A   Clear
9:55 PM 73.9 °F - 72.0 °F 93% 29.87 in 10.0 mi SE 4.6 mph - N/A   Clear
10:55 PM 75.0 °F - 72.0 °F 90% 29.87 in 10.0 mi East 3.5 mph - N/A   Clear
11:55 PM 73.9 °F - 71.1 °F 91% 29.86 in 10.0 mi East 3.5 mph - N/A   Clear